User: anonymous   Login
Location: Arroyo Retuerta
(40.5469°N, 4.3534°W)
Time: 16:24:38
(UTC+00:00)
Language:

Abrixas rocket - Orbit

View from above orbital plane
View from above orbital plane
View from above satellite
View from above satellite

Ground track
Ground track

The orbit data is extracted from the following two-line orbital elements,

1 25723U 99022C   20224.84398715 +.00017645 +00000-0 +11532-3 0  9994
2 25723 048.4113 059.5916 0006188 255.2809 104.7459 15.75804834186393
Epoch (UTC): 11 August 2020 20:15:20
Eccentricity: 0.0006188
inclination: 48.4113°
perigee height: 338 km
apogee height: 346 km
right ascension of ascending node: 59.5916°
argument of perigee: 255.2809°
revolutions per day: 15.75804834
mean anomaly at epoch: 104.7459°
orbit number at epoch: 18639

The dashed part of the orbit path shows where the satellite is in the earth's shadow,  

DLR